Location: Glendale
(37.4556°N, 88.6714°W)
Time: 04:12:02
(UTC+00:00)

Cosmos 1553 Rocket - Pass Details

Date: 08 December 2019
Orbit: 942 x 1007 km, 82.9° (Epoch: 26 January)

Event Time Altitude Azimuth Distance (km) Brightness Sun altitude
Rises 01:09:27 0° 351° (N) 3,714 7.1 -29.6°
Reaches altitude 10° 01:11:58 10° 349° (N) 2,769 6.4 -30.1°
Maximum altitude 01:18:19 73° 266° (W) 1,049 4.1 -31.4°
Drops below altitude 10° 01:24:40 10° 183° (S) 2,774 6.4 -32.6°
Sets 01:27:12 0° 181° (S) 3,721 7.1 -33.1°
